Milford, UT

12:26 PM MST on December 07, 2016 (GMT -0700)
Milford Municipal

Weather History for KMLF - September, 2012

Change the Weather History Date:

Thursday, September 6, 2012

  Actual Average Record
Temperature  
Mean Temperature 77 °F -  
Max Temperature 90 °F 82 °F 91 °F (2013)
Min Temperature 64 °F 48 °F 41 °F (2004)
Cooling Degree Days 12    
Growing Degree Days 27 (Base 50)    
Moisture  
Dew Point 47 °F    
Average Humidity 37    
Maximum Humidity 63    
Minimum Humidity 18    
Precipitation  
Precipitation 0.00 in - - ()
Sea Level Pressure  
Sea Level Pressure 29.88 in    
Wind  
Wind Speed 14 mph (SSW)    
Max Wind Speed 29 mph    
Max Gust Speed 36 mph    
Visibility 10 miles    
Events      
Averages and records for this station are not official NWS values.
T = Trace of Precipitation, MM = Missing Value Source: NWS Daily Summary

Daily Weather History Graph

Daily Weather History Graph

Search for Another Location

Airport or City:

Trip Planner

Search our weather history database for the weather conditions in past years. The results will help you decide how hot, cold, wet, or windy it might be!

Date:

Astronomy

Sep. 06, 2012 Rise Set
Actual Time 7:06 AM MDT 7:53 PM MDT
Civil Twilight 6:39 AM MDT 8:20 PM MDT
Nautical Twilight 6:07 AM MDT 8:51 PM MDT
Astronomical Twilight 5:34 AM MDT 9:24 PM MDT
Moon 11:12 PM MDT (9/6) 1:03 PM MDT (9/6)
Length of Visible Light 13h 40m
Length of Day
12h 47m
Waning Gibbous, 67% of the Moon is Illuminated
Sep 6
Waning Gibbous
Sep 8
Last Quarter
Sep 15
New
Sep 22
First Quarter
Sep 29
Full

Hourly Weather History & Observations

Time (MDT) Temp. Dew Point Humidity Pressure Visibility Wind Dir Wind Speed Gust Speed Precip Events Conditions
12:52 AM 70.0 °F 43.0 °F 38% 29.87 in 10.0 mi SSW 12.7 mph - N/A   Clear
1:52 AM 71.1 °F 43.0 °F 36% 29.85 in 10.0 mi SSW 11.5 mph - N/A   Clear
2:52 AM 70.0 °F 43.0 °F 38% 29.85 in 10.0 mi SSW 13.8 mph - N/A   Clear
3:52 AM 69.1 °F 43.0 °F 39% 29.85 in 10.0 mi SSW 13.8 mph - N/A   Clear
4:52 AM 68.0 °F 43.0 °F 40% 29.84 in 10.0 mi SSW 11.5 mph - N/A   Clear
5:52 AM 66.0 °F 43.0 °F 43% 29.85 in 10.0 mi South 4.6 mph - N/A   Clear
6:52 AM 68.0 °F 44.1 °F 42% 29.86 in 10.0 mi SSW 10.4 mph - N/A   Clear
7:52 AM 70.0 °F 44.1 °F 39% 29.88 in 10.0 mi SSW 12.7 mph - N/A   Clear
8:52 AM 72.0 °F 45.0 °F 38% 29.91 in 10.0 mi SSW 15.0 mph - N/A   Clear
9:52 AM 75.9 °F 46.0 °F 35% 29.90 in 10.0 mi South 15.0 mph - N/A   Partly Cloudy
10:52 AM 79.0 °F 48.0 °F 34% 29.91 in 10.0 mi SSW 16.1 mph - N/A   Scattered Clouds
11:52 AM 82.0 °F 48.0 °F 30% 29.90 in 10.0 mi SSW 10.4 mph 18.4 mph N/A   Clear
12:52 PM 87.1 °F 46.9 °F 25% 29.87 in 10.0 mi SW 16.1 mph 23.0 mph N/A   Mostly Cloudy
1:52 PM 87.1 °F 46.9 °F 25% 29.86 in 10.0 mi SSW 16.1 mph 28.8 mph N/A   Mostly Cloudy
2:52 PM 84.9 °F 48.0 °F 28% 29.84 in 10.0 mi SSW 20.7 mph 27.6 mph N/A   Partly Cloudy
3:52 PM 86.0 °F 48.0 °F 27% 29.82 in 10.0 mi SSW 24.2 mph 33.4 mph N/A   Partly Cloudy
4:52 PM 84.0 °F 48.9 °F 29% 29.83 in 10.0 mi SSW 28.8 mph 35.7 mph N/A   Clear
5:52 PM 84.9 °F 48.9 °F 29% 29.83 in 10.0 mi SSW 23.0 mph 32.2 mph N/A   Clear
6:52 PM 82.9 °F 46.9 °F 28% 29.83 in 10.0 mi SSW 17.3 mph - N/A   Partly Cloudy
7:57 PM 69.8 °F 51.8 °F 53% 30.08 in 10.0 mi North 20.7 mph 31.1 mph N/A   Mostly Cloudy
8:52 PM 69.1 °F 52.0 °F 54% 29.92 in 10.0 mi NNE 16.1 mph - N/A   Partly Cloudy
9:52 PM 66.0 °F 52.0 °F 60% 29.94 in 10.0 mi NNW 11.5 mph - N/A   Clear
10:52 PM 66.9 °F 51.1 °F 57% 29.94 in 10.0 mi North 4.6 mph - N/A   Overcast
11:52 PM 64.0 °F 51.1 °F 63% 29.96 in 10.0 mi NE 5.8 mph - N/A   Scattered Clouds